Total_Precipitation_Accumulation
0.00 0.00 0.00 0.00 0.00 0.00 0.00 0.00 0.01 0.00 0.00 0.00 0.00 0.00 0.00 0.00 0.00 0.00 0.00 0.00 0.00 0.00 0.00 0.00 0.00 0.00 0.00 0.01 0.01 0.01 0.02 0.03 0.02 0.02 0.02 0.01 0.03 0.05 0.06 0.06 0.05 0.07 0.11 0.12
0.00 0.00 0.00 0.00 0.00 0.00 0.00 0.00 0.00 0.00 0.00 0.00 0.00 0.01 0.01 0.01 0.02 0.01 0.01 0.02 0.02 0.02 0.02 0.03 0.02 0.03 0.03 0.03 0.04 0.04 0.06 0.08 0.06 0.05 0.05 0.03 0.04 0.03 0.04 0.05 0.06 0.06 0.06 0.07
0.00 0.00 0.00 0.00 0.00 0.00 0.00 0.00 0.00 0.00 0.01 0.01 0.02 0.03 0.05 0.07 0.08 0.08 0.08 0.08 0.07 0.07 0.05 0.04 0.03 0.02 0.02 0.02 0.02 0.03 0.05 0.09 0.09 0.08 0.07 0.04 0.03 0.03 0.03 0.04 0.07 0.07 0.06 0.05
0.00 0.00 0.00 0.00 0.00 0.00 0.00 0.00 0.01 0.03 0.05 0.08 0.12 0.14 0.17 0.22 0.22 0.16 0.10 0.07 0.04 0.03 0.01 0.01 0.00 0.01 0.01 0.01 0.02 0.02 0.03 0.08 0.11 0.11 0.08 0.05 0.04 0.04 0.05 0.05 0.07 0.09 0.09 0.08
0.00 0.00 0.00 0.00 0.00 0.00 0.01 0.03 0.05 0.10 0.17 0.22 0.26 0.26 0.21 0.16 0.12 0.08 0.04 0.02 0.01 0.01 0.01 0.01 0.01 0.01 0.02 0.02 0.03 0.03 0.04 0.06 0.10 0.13 0.11 0.08 0.07 0.08 0.08 0.09 0.09 0.11 0.12 0.12
0.00 0.00 0.00 0.00 0.01 0.05 0.06 0.13 0.18 0.21 0.21 0.16 0.12 0.11 0.08 0.03 0.01 0.01 0.01 0.00 0.01 0.01 0.01 0.02 0.02 0.03 0.03 0.04 0.05 0.06 0.06 0.08 0.11 0.15 0.15 0.12 0.11 0.12 0.12 0.12 0.14 0.15 0.16 0.15
0.00 0.00 0.01 0.02 0.05 0.10 0.17 0.22 0.18 0.13 0.10 0.08 0.07 0.06 0.03 0.01 0.01 0.01 0.00 0.00 0.01 0.01 0.02 0.04 0.06 0.08 0.10 0.12 0.13 0.13 0.13 0.14 0.17 0.18 0.19 0.16 0.16 0.15 0.16 0.18 0.19 0.20 0.21 0.19
0.00 0.02 0.06 0.05 0.06 0.10 0.10 0.08 0.06 0.05 0.04 0.03 0.02 0.01 0.01 0.00 0.01 0.01 0.00 0.00 0.01 0.02 0.02 0.04 0.07 0.11 0.14 0.15 0.16 0.16 0.18 0.18 0.20 0.23 0.22 0.18 0.19 0.21 0.24 0.26 0.27 0.29 0.34 0.33
0.01 0.04 0.03 0.02 0.02 0.03 0.03 0.03 0.03 0.02 0.02 0.01 0.01 0.00 0.00 0.00 0.00 0.00 0.00 0.00 0.00 0.01 0.02 0.03 0.05 0.07 0.09 0.11 0.12 0.12 0.15 0.16 0.20 0.26 0.27 0.26 0.26 0.26 0.31 0.37 0.40 0.40 0.41 0.43
0.04 0.04 0.04 0.02 0.01 0.01 0.01 0.01 0.01 0.00 0.00 0.00 0.00 0.00 0.00 0.00 0.00 0.00 0.00 0.00 0.00 0.00 0.01 0.01 0.03 0.05 0.06 0.10 0.14 0.15 0.16 0.16 0.19 0.23 0.29 0.36 0.38 0.36 0.38 0.44 0.48 0.49 0.46 0.41
0.02 0.03 0.03 0.01 0.00 0.00 0.00 0.00 0.00 0.00 0.00 0.00 0.00 0.00 0.00 0.00 0.00 0.00 0.00 0.00 0.00 0.00 0.01 0.02 0.02 0.03 0.03 0.06 0.13 0.16 0.16 0.17 0.20 0.23 0.29 0.38 0.44 0.45 0.44 0.47 0.53 0.51 0.44 0.36
0.00 0.00 0.00 0.00 0.00 0.00 0.00 0.00 0.00 0.00 0.00 0.00 0.00 0.00 0.00 0.00 0.00 0.00 0.00 0.00 0.01 0.01 0.01 0.02 0.02 0.03 0.03 0.05 0.11 0.16 0.17 0.17 0.20 0.24 0.30 0.37 0.45 0.48 0.44 0.42 0.43 0.45 0.39 0.31
0.00 0.00 0.00 0.00 0.00 0.00 0.00 0.00 0.00 0.00 0.00 0.00 0.00 0.00 0.00 0.00 0.00 0.00 0.00 0.01 0.02 0.02 0.03 0.04 0.04 0.05 0.06 0.07 0.17 0.28 0.24 0.21 0.23 0.26 0.30 0.35 0.40 0.45 0.46 0.40 0.37 0.35 0.28 0.20
0.00 0.00 0.00 0.00 0.00 0.00 0.00 0.00 0.00 0.00 0.00 0.00 0.00 0.00 0.00 0.00 0.01 0.01 0.02 0.03 0.05 0.06 0.07 0.08 0.08 0.07 0.08 0.09 0.14 0.37 0.46 0.35 0.27 0.26 0.31 0.36 0.37 0.40 0.46 0.47 0.43 0.35 0.24 0.16
0.00 0.00 0.00 0.00 0.00 0.00 0.00 0.00 0.00 0.00 0.00 0.00 0.00 0.00 0.00 0.01 0.02 0.03 0.05 0.08 0.12 0.14 0.13 0.13 0.11 0.09 0.10 0.11 0.13 0.20 0.38 0.40 0.34 0.28 0.31 0.37 0.39 0.39 0.43 0.45 0.46 0.43 0.31 0.19
0.00 0.00 0.00 0.00 0.00 0.00 0.00 0.00 0.00 0.00 0.00 0.00 0.00 0.01 0.02 0.03 0.05 0.07 0.10 0.16 0.26 0.28 0.24 0.20 0.16 0.11 0.13 0.15 0.15 0.16 0.23 0.27 0.30 0.32 0.33 0.37 0.40 0.38 0.40 0.43 0.44 0.44 0.35 0.22
0.00 0.00 0.00 0.00 0.00 0.00 0.00 0.00 0.00 0.00 0.00 0.00 0.01 0.03 0.05 0.08 0.13 0.17 0.20 0.23 0.30 0.33 0.30 0.28 0.22 0.17 0.17 0.20 0.19 0.19 0.25 0.24 0.22 0.29 0.34 0.35 0.37 0.38 0.38 0.40 0.40 0.38 0.31 0.19
0.00 0.00 0.00 0.00 0.00 0.00 0.00 0.00 0.00 0.00 0.01 0.02 0.04 0.07 0.11 0.19 0.30 0.37 0.38 0.38 0.39 0.34 0.30 0.30 0.23 0.17 0.15 0.17 0.18 0.19 0.30 0.31 0.21 0.23 0.30 0.31 0.32 0.35 0.37 0.36 0.35 0.33 0.26 0.15
0.00 0.00 0.00 0.00 0.00 0.00 0.00 0.00 0.00 0.01 0.03 0.06 0.11 0.16 0.19 0.27 0.39 0.48 0.50 0.53 0.55 0.48 0.39 0.32 0.22 0.16 0.12 0.11 0.12 0.16 0.27 0.34 0.24 0.19 0.24 0.24 0.25 0.29 0.32 0.32 0.30 0.28 0.21 0.10
0.00 0.00 0.00 0.00 0.00 0.00 0.00 0.01 0.02 0.05 0.07 0.13 0.21 0.27 0.31 0.36 0.43 0.51 0.50 0.51 0.57 0.58 0.51 0.39 0.22 0.14 0.10 0.07 0.08 0.13 0.25 0.33 0.24 0.16 0.17 0.20 0.22 0.24 0.26 0.26 0.24 0.21 0.14 0.06
0.00 0.00 0.00 0.00 0.00 0.00 0.01 0.02 0.06 0.10 0.12 0.18 0.27 0.36 0.43 0.42 0.42 0.47 0.53 0.55 0.53 0.56 0.57 0.49 0.31 0.17 0.10 0.08 0.08 0.15 0.26 0.32 0.24 0.15 0.14 0.16 0.18 0.21 0.22 0.19 0.17 0.13 0.08 0.04
0.00 0.00 0.00 0.00 0.00 0.00 0.01 0.03 0.06 0.10 0.15 0.25 0.32 0.39 0.47 0.45 0.43 0.41 0.42 0.50 0.52 0.57 0.57 0.54 0.44 0.28 0.15 0.09 0.08 0.13 0.24 0.29 0.25 0.16 0.11 0.12 0.14 0.17 0.15 0.12 0.11 0.07 0.04 0.02
0.00 0.00 0.00 0.00 0.00 0.00 0.01 0.02 0.03 0.07 0.18 0.31 0.37 0.43 0.49 0.44 0.46 0.52 0.47 0.38 0.41 0.48 0.45 0.41 0.41 0.33 0.19 0.11 0.08 0.11 0.21 0.29 0.28 0.16 0.10 0.10 0.11 0.11 0.09 0.07 0.05 0.03 0.02 0.01
0.00 0.00 0.00 0.00 0.00 0.00 0.02 0.03 0.02 0.05 0.17 0.28 0.29 0.34 0.40 0.39 0.38 0.40 0.40 0.36 0.37 0.40 0.35 0.31 0.30 0.29 0.24 0.17 0.14 0.15 0.20 0.25 0.24 0.14 0.07 0.07 0.07 0.06 0.05 0.04 0.02 0.01 0.01 0.01
0.00 0.00 0.00 0.00 0.01 0.02 0.04 0.04 0.03 0.06 0.19 0.32 0.27 0.28 0.28 0.30 0.36 0.36 0.33 0.28 0.30 0.33 0.29 0.26 0.24 0.22 0.20 0.20 0.22 0.20 0.18 0.18 0.15 0.09 0.04 0.03 0.03 0.03 0.03 0.02 0.01 0.00 0.00 0.00
0.00 0.00 0.00 0.00 0.02 0.03 0.04 0.04 0.04 0.06 0.21 0.43 0.39 0.30 0.25 0.21 0.21 0.24 0.28 0.27 0.27 0.31 0.27 0.22 0.18 0.18 0.19 0.24 0.24 0.18 0.13 0.10 0.07 0.05 0.03 0.02 0.02 0.02 0.02 0.01 0.01 0.00 0.00 0.00
0.00 0.00 0.00 0.00 0.00 0.01 0.02 0.03 0.03 0.05 0.18 0.43 0.48 0.32 0.21 0.16 0.16 0.20 0.25 0.28 0.27 0.26 0.22 0.18 0.13 0.13 0.14 0.16 0.14 0.10 0.07 0.05 0.04 0.04 0.03 0.02 0.02 0.01 0.01 0.01 0.00 0.00 0.00 0.00